TimeCST,TemperatureF,Dew PointF,Humidity,Sea Level PressureIn,VisibilityMPH,Wind Direction,Wind SpeedMPH,Gust SpeedMPH,PrecipitationIn,Events,Conditions,WindDirDegrees,DateUTC
12:56 AM,28.0,24.1,85,30.14,10.0,East,3.5,-,N/A,,Clear,100,2013-03-04 06:56:00
1:56 AM,28.0,21.0,75,30.14,10.0,Calm,Calm,-,N/A,,Clear,0,2013-03-04 07:56:00
2:56 AM,29.1,23.0,78,30.14,10.0,Calm,Calm,-,N/A,,Partly Cloudy,0,2013-03-04 08:56:00
3:56 AM,30.0,23.0,75,30.14,10.0,SE,4.6,-,N/A,,Overcast,130,2013-03-04 09:56:00
4:56 AM,30.0,22.1,72,30.14,10.0,ESE,6.9,-,N/A,,Overcast,120,2013-03-04 10:56:00
6:56 AM,32.0,21.0,64,30.13,10.0,SE,8.1,-,N/A,,Mostly Cloudy,140,2013-03-04 12:56:00
7:33 AM,32.0,21.2,64,30.12,10.0,SE,10.4,-,0.00,,Ice Pellets,140,2013-03-04 13:33:00
7:56 AM,32.9,23.0,67,30.13,10.0,SE,9.2,-,0.00,,Light Drizzle,130,2013-03-04 13:56:00
8:56 AM,34.9,22.1,60,30.11,10.0,SE,11.5,-,0.00,,Scattered Clouds,140,2013-03-04 14:56:00
9:56 AM,38.8,23.0,53,30.11,10.0,SSE,16.1,-,N/A,,Partly Cloudy,160,2013-03-04 15:56:00
10:56 AM,41.0,24.1,51,30.07,10.0,SE,13.8,-,N/A,,Overcast,130,2013-03-04 16:56:00
11:56 AM,45.9,27.1,48,30.03,10.0,SE,13.8,18.4,N/A,,Scattered Clouds,130,2013-03-04 17:56:00
12:56 PM,45.9,27.1,48,29.98,10.0,SE,12.7,20.7,N/A,,Scattered Clouds,130,2013-03-04 18:56:00
1:56 PM,48.9,28.0,44,29.94,10.0,ESE,18.4,21.9,N/A,,Scattered Clouds,120,2013-03-04 19:56:00
2:56 PM,48.9,28.0,44,29.90,10.0,ESE,15.0,-,N/A,,Clear,120,2013-03-04 20:56:00
3:56 PM,48.9,28.0,44,29.91,10.0,SE,16.1,21.9,N/A,,Partly Cloudy,130,2013-03-04 21:56:00
4:56 PM,47.8,28.0,46,29.90,10.0,ESE,15.0,-,N/A,,Mostly Cloudy,110,2013-03-04 22:56:00
5:56 PM,46.9,29.1,50,29.92,10.0,East,13.8,-,N/A,,Overcast,100,2013-03-04 23:56:00
6:56 PM,45.9,30.0,54,29.91,10.0,East,10.4,-,N/A,,Overcast,100,2013-03-05 00:56:00
7:56 PM,46.9,29.1,50,29.91,10.0,ESE,12.7,-,N/A,,Overcast,120,2013-03-05 01:56:00
8:56 PM,46.9,29.1,50,29.90,10.0,ESE,10.4,-,N/A,,Overcast,120,2013-03-05 02:56:00
9:56 PM,46.9,30.0,52,29.88,10.0,ESE,9.2,-,N/A,,Overcast,120,2013-03-05 03:56:00
10:56 PM,47.8,31.1,52,29.87,10.0,SE,9.2,-,N/A,,Overcast,130,2013-03-05 04:56:00
11:56 PM,47.8,34.0,59,29.85,10.0,SE,8.1,-,0.00,Rain,Light Rain,140,2013-03-05 05:56:00